This is the latest recevied weather packets stored in our database for station/object K4KMJ. If no packets are shown the sender has not sent any weather packets the latest 10 day(s).
| Time | Temp. | Humidity | Pressure | Rain* | Wind** | Luminosity | Snow |
|---|---|---|---|---|---|---|---|
| 1788437638 | 25° C | 99% | 1017 hPa | 0 mm | - | 65 W/m² | - |
| 1788437334 | 25° C | 99% | 1016.9 hPa | 1.27 mm | - | 76 W/m² | - |
| 1788437033 | 25° C | 99% | 1016.7 hPa | 4.83 mm | - | 73 W/m² | - |
| 1788436731 | 25° C | 99% | 1017 hPa | 10.16 mm | - | 60 W/m² | - |
| 1788436426 | 25° C | 99% | 1016.9 hPa | 16.76 mm | - | 42 W/m² | - |
| 1788436126 | 24.44° C | 99% | 1016.7 hPa | 16.26 mm | - | 24 W/m² | - |
| 1788435821 | 25° C | 99% | 1016.9 hPa | 6.6 mm | - | 16 W/m² | - |
| 1788435517 | 24.44° C | 99% | 1016.8 hPa | 1.27 mm | - | 12 W/m² | - |
| 1788435207 | 25° C | 99% | 1017 hPa | 1.27 mm | - | 6 W/m² | - |
| 1788434903 | 24.44° C | 99% | 1016.7 hPa | 0.51 mm | - | 4 W/m² | - |
| 1788434598 | 24.44° C | 99% | 1016.5 hPa | 0 mm | - | 5 W/m² | - |
| 1788434297 | 25° C | 99% | 1016.5 hPa | 0 mm | - | 4 W/m² | - |
| 1788433992 | 24.44° C | 99% | 1016.5 hPa | 0 mm | - | 3 W/m² | - |
| 1788433688 | 24.44° C | 99% | 1016.2 hPa | 0 mm | - | 1 W/m² | - |
| 1788433384 | 24.44° C | 99% | 1016.2 hPa | 0 mm | - | 1 W/m² | - |
| 1788433083 | 24.44° C | 99% | 1016.2 hPa | 0 mm | - | 0 W/m² | - |
| 1788432778 | 24.44° C | 99% | 1016 hPa | 0 mm | - | 0 W/m² | - |
| 1788432478 | 24.44° C | 99% | 1015.8 hPa | 0 mm | - | 0 W/m² | - |
| 1788432173 | 24.44° C | 99% | 1015.6 hPa | 0 mm | - | 0 W/m² | - |
| 1788431869 | 24.44° C | 99% | 1015.7 hPa | 0 mm | - | 0 W/m² | - |
| 1788431587 | 24.44° C | 99% | 1015.8 hPa | 0 mm | - | 0 W/m² | - |
| 1788431261 | 24.44° C | 99% | 1015.8 hPa | 0 mm | - | 0 W/m² | - |
| 1788430960 | 24.44° C | 99% | 1015.7 hPa | 0 mm | - | 0 W/m² | - |
| 1788430658 | 24.44° C | 99% | 1015.4 hPa | 0 mm | - | 0 W/m² | - |
| 1788430355 | 24.44° C | 99% | 1015.8 hPa | 0 mm | - | 0 W/m² | - |
* Rain latest hour (hover to see other rain measurements)
** Current wind speed in m/s (hover to see current wind gust speed)